Location: ??
(34.9170°N, 135.5016°E)
Time: 11:47:37
(UTC+00:00)

SL-16 R/B - Pass Details

Date: 29 October 2020
Orbit: 842 x 846 km, 71.0° (Epoch: 27 November)

Event Time Altitude Azimuth Distance (km) Brightness Sun altitude
Rises 20:48:25 0° 340° (NNW) 3,410 5.0 -6.5°
Reaches altitude 10° 20:50:52 10° 342° (NNW) 2,472 4.3 -6.0°
Maximum altitude 20:56:33 78° 69° (ENE) 865 2.4 -4.9°
Drops below altitude 10° 21:02:12 10° 156° (SSE) 2,457 5.2 -3.8°
Sets 21:04:39 0° 157° (SSE) 3,389 5.9 -3.3°
